Location: Shepherdstown, WV
(39.4326°N, 77.8042°W)
Time: 14:36:57
(UTC-04:00)

Vanguard 1 Rocket - Pass Details

Date: 06 August 2021
Orbit: 650 x 4226 km, 34.3° (Epoch: 20 September)

Event Time Altitude Azimuth Distance (km) Brightness Sun altitude
Rises 05:59:46 0° 191° (S) 8,063 11.9 -3.7°
Reaches altitude 10° 06:07:28 10° 178° (S) 7,320 11.8 -2.3°
Maximum altitude 06:24:39 23° 136° (SE) 6,220 12.0 0.7°
Drops below altitude 10° 06:39:39 10° 94° (E) 6,494 13.2 3.5°
Sets 06:45:34 0° 81° (E) 7,015 14.3 4.6°
